Flight Track Log - Related Links

Times and Time Zones

All times are in EDT time to prevent confusion due to time zone crossing. See the BOE523 flight status page for this flight to view local times or setup timezone preferences in your user account.

Time Position Orientation Groundspeed Altitude Reporting Facility
EDT Latitude Longitude Course Direction KTS MPH feet Rate Location/Type
10:08AM 47.7732 -122.2833 357° North  Level FlightAware Approximate
10:10AM 47.8547 -122.2903 183° South 196 226 2,500  Level Seattle Center
10:10AM 47.8372 -122.2917 161° South 207 238 2,600 632 Climbing Seattle Center
10:11AM 47.7967 -122.2714 331° Northwest 250 288 3,100 714 Climbing Seattle Center
10:11AM 47.8000 -122.2742 141° Southeast 240 276 3,100 -98 Level Seattle Center
10:12AM 47.7356 -122.1967 131° Southeast 273 314 3,000 -98 Descending Seattle Center
10:12AM 47.7294 -122.1864 133° Southeast 278 320 3,000 1,545 Level Seattle Center
10:13AM 47.6753 -122.1014 134° Southeast 283 326 4,700 984 Climbing Seattle Center
10:14AM 47.6194 -122.0144 121° Southeast 289 333 5,000 1,279 Climbing Seattle Center
10:15AM 47.5772 -121.9122 79° East 305 351 7,300 2,557 Climbing Seattle Center
10:16AM 47.5928 -121.7875 76° East 320 368 10,200 2,098 Climbing Seattle Center
10:17AM 47.6172 -121.6444 80° East 369 425 11,600 1,610 Climbing Seattle Center
10:18AM 47.6361 -121.4781 86° East 418 481 13,500 2,016 Climbing Seattle Center
10:19AM 47.6433 -121.3047 86° East 432 497 15,700 2,311 Climbing Seattle Center
10:20AM 47.6539 -121.0775 86° East 465 535 18,200 2,213 Climbing Seattle Center
10:21AM 47.6639 -120.8844 85° East 474 545 20,200 1,805 Climbing Seattle Center
10:22AM 47.6742 -120.6936 101° East 483 556 21,900 1,805 Climbing Seattle Center
10:23AM 47.6472 -120.4969 103° East 483 556 23,900 1,721 Climbing Seattle Center
10:24AM 47.6147 -120.2958 94° East 497 572 25,400 1,415 Climbing Seattle Center
10:25AM 47.6033 -120.0833 92° East 514 592 26,800 1,659 Climbing Seattle Center
10:26AM 47.5983 -119.8236 92° East 527 606 28,800 1,770 Climbing Seattle Center
10:27AM 47.5942 -119.6075 91° East 528 608 30,400 1,525 Climbing Seattle Center
10:28AM 47.5903 -119.3939 92° East 521 600 31,900 1,366 Climbing Seattle Center
10:29AM 47.5861 -119.1786 92° East 522 601 33,200 1,171 Climbing Seattle Center
10:30AM 47.5811 -118.9703 92° East 520 598 34,300 836 Climbing Seattle Center
10:31AM 47.5758 -118.7606 92° East 518 596 34,900 344 Climbing Seattle Center
10:32AM 47.5697 -118.5464 92° East 518 596 35,000 49 Climbing Seattle Center
10:33AM 47.5636 -118.3342 92° East 519 597 35,000  Level Seattle Center
10:34AM 47.5561 -118.0769 93° East 522 601 35,000  Level Seattle Center
10:35AM 47.5492 -117.8650 93° East 521 600 35,000  Level Seattle Center
10:36AM 47.5422 -117.6550 93° East 517 595 35,000  Level Seattle Center
10:37AM 47.5333 -117.4433 92° East 517 595 35,000  Level Seattle Center
10:38AM 47.5281 -117.2278 93° East 514 592 35,000  Level Seattle Center
10:39AM 47.5200 -117.0181 93° East 511 588 35,000  Level Seattle Center
10:40AM 47.5119 -116.8056 93° East 516 594 35,000  Level Seattle Center
10:41AM 47.5031 -116.5886 94° East 519 597 35,000  Level Seattle Center
10:42AM 47.4931 -116.3794 84° East 521 600 35,000  Level Seattle Center
10:43AM 47.5078 -116.1689 64° Northeast 521 600 35,000  Level Seattle Center
10:44AM 47.5847 -115.9308 64° Northeast 523 602 35,000  Level Seattle Center
10:45AM 47.6472 -115.7411 66° East 526 605 35,000  Level Seattle Center
10:46AM 47.7064 -115.5433 88° East 526 605 35,000  Level Seattle Center
10:47AM 47.7106 -115.3286 291° West 521 600 35,000  Level Salt Lake Center
10:47AM 47.7108 -115.3297 89° East 519 597 35,000  Level Seattle Center
10:48AM 47.7139 -115.1144 90° East 523 602 35,000  Level Salt Lake Center
10:48AM 47.7139 -115.1142 89° East 523 602 35,000  Level Seattle Center
10:50AM 47.7158 -114.9006 91° East 522 601 35,000  Level Seattle Center
10:51AM 47.7122 -114.6883 64° Northeast 522 601 35,000  Level Seattle Center
10:51AM 47.7125 -114.6875 96° East 522 601 35,000  Level Salt Lake Center
10:52AM 47.6944 -114.4325 96° East 529 609 35,000  Level Salt Lake Center
10:53AM 47.6797 -114.2169 96° East 532 612 35,000  Level Salt Lake Center
10:54AM 47.6647 -113.9997 96° East 534 615 35,000  Level Salt Lake Center
10:55AM 47.6492 -113.7828 97° East 536 617 35,000  Level Salt Lake Center
10:56AM 47.6289 -113.5233 96° East 532 612 35,000  Level Salt Lake Center
10:57AM 47.6125 -113.3069 96° East 533 613 35,000  Level Salt Lake Center
10:58AM 47.5972 -113.0875 97° East 536 617 35,000  Level Salt Lake Center
10:59AM 47.5783 -112.8581 97° East 541 623 35,000  Level Salt Lake Center
11:00AM 47.5597 -112.6447 97° East 540 621 35,000  Level Salt Lake Center
11:01AM 47.5375 -112.3761 97° East 547 629 35,000  Level Salt Lake Center
11:02AM 47.5175 -112.1494 97° East 555 639 35,000  Level Salt Lake Center
11:03AM 47.4969 -111.9197 98° East 561 646 35,000  Level Salt Lake Center
11:04AM 47.4750 -111.6953 136° Southeast 562 647 35,000  Level Salt Lake Center
11:05AM 47.3775 -111.5544 179° South 510 587 35,000 -192 Level Salt Lake Center
11:06AM 47.2369 -111.5500 205° Southwest 440 506 34,600 -480 Descending Salt Lake Center
11:07AM 47.1336 -111.6203 204° Southwest 426 490 34,000 -290 Descending Salt Lake Center
11:08AM 47.0281 -111.6892 203° Southwest 420 483 34,000  Level Salt Lake Center
11:09AM 46.9219 -111.7539 204° Southwest 418 481 34,000  Level Salt Lake Center
11:10AM 46.8167 -111.8208 204° Southwest 415 478 34,000  Level Salt Lake Center
11:11AM 46.6919 -111.9000 203° Southwest 411 473 34,000  Level Salt Lake Center
11:12AM 46.5856 -111.9667 197° South 415 478 34,000  Level Salt Lake Center
11:13AM 46.4742 -112.0153 197° South 421 484 34,000  Level Salt Lake Center
11:14AM 46.3636 -112.0653 197° South 421 484 34,000  Level Salt Lake Center
11:15AM 46.2294 -112.1247 197° South 421 484 34,000  Level Salt Lake Center
11:17AM 46.1169 -112.1733 197° South 423 487 34,000  Level Salt Lake Center
11:18AM 46.0050 -112.2222 197° South 423 487 34,000  Level Salt Lake Center
11:19AM 45.8933 -112.2703 197° South 423 487 34,000  Level Salt Lake Center
11:20AM 45.7578 -112.3297 197° South 424 488 34,000  Level Salt Lake Center
11:21AM 45.6458 -112.3778 197° South 423 487 34,000  Level Salt Lake Center
11:22AM 45.5339 -112.4256 197° South 422 486 34,000  Level Salt Lake Center
11:23AM 45.4225 -112.4742 197° South 421 484 34,000  Level Salt Lake Center
11:24AM 45.3011 -112.5272 196° South 421 484 34,000  Level Salt Lake Center
11:25AM 45.1758 -112.5789 199° South 421 484 34,000  Level Salt Lake Center
11:26AM 45.0717 -112.6297 208° Southwest 416 479 34,000  Level Salt Lake Center
11:27AM 44.9583 -112.7164 208° Southwest 415 478 34,000  Level Salt Lake Center
11:28AM 44.8619 -112.7894 208° Southwest 412 474 34,000  Level Salt Lake Center
11:29AM 44.7486 -112.8739 208° Southwest 412 474 34,000  Level Salt Lake Center
11:30AM 44.6506 -112.9461 208° Southwest 413 475 34,000  Level Salt Lake Center
11:31AM 44.5372 -113.0289 208° Southwest 413 475 34,000  Level Salt Lake Center
11:32AM 44.4406 -113.1008 208° Southwest 412 474 34,000  Level Salt Lake Center
11:33AM 44.3275 -113.1842 207° Southwest 411 473 34,000  Level Salt Lake Center
11:34AM 44.2311 -113.2539 207° Southwest 409 471 34,000  Level Salt Lake Center
11:35AM 44.1181 -113.3358 207° Southwest 409 471 34,000  Level Salt Lake Center
11:36AM 44.0208 -113.4061 207° Southwest 410 472 34,000  Level Salt Lake Center
11:37AM 43.9056 -113.4881 208° Southwest 414 476 34,000  Level Salt Lake Center
11:38AM 43.8083 -113.5600 208° Southwest 413 475 34,000  Level Salt Lake Center
11:39AM 43.6950 -113.6428 207° Southwest 412 474 34,000  Level Salt Lake Center
11:40AM 43.5967 -113.7114 207° Southwest 413 475 34,000  Level Salt Lake Center
11:42AM 43.4822 -113.7925 206° Southwest 413 475 34,000  Level Salt Lake Center
11:43AM 43.3819 -113.8603 208° Southwest 416 479 34,000  Level Salt Lake Center
11:44AM 43.2803 -113.9356 207° Southwest 413 475 34,000  Level Salt Lake Center
11:45AM 43.1617 -114.0183 206° Southwest 415 478 34,000  Level Salt Lake Center
11:46AM 43.0558 -114.0903 207° Southwest 419 482 34,000  Level Salt Lake Center
11:47AM 42.9522 -114.1633 207° Southwest 417 480 34,000  Level Salt Lake Center
11:48AM 42.8492 -114.2350 207° Southwest 416 479 34,000  Level Salt Lake Center
11:49AM 42.7447 -114.3081 207° Southwest 416 479 34,000  Level Salt Lake Center
11:50AM 42.6414 -114.3789 207° Southwest 415 478 34,000  Level Salt Lake Center
11:51AM 42.5192 -114.4619 193° South 416 479 34,000  Level Salt Lake Center
11:52AM 42.4033 -114.4981 185° South 429 494 34,000  Level Salt Lake Center
11:53AM 42.2833 -114.5108 185° South 430 495 34,000  Level Salt Lake Center
11:54AM 42.1628 -114.5247 186° South 431 496 34,000  Level Salt Lake Center
11:55AM 42.0314 -114.5419 185° South 435 501 34,000  Level Salt Lake Center
11:56AM 41.9156 -114.5547 185° South 436 502 34,000  Level Salt Lake Center
11:57AM 41.7797 -114.5703 185° South 436 502 34,000  Level Salt Lake Center
11:58AM 41.6642 -114.5847 185° South 436 502 34,000  Level Salt Lake Center
11:59AM 41.5336 -114.5989 184° South 433 498 34,000  Level Salt Lake Center
12:00PM 41.4128 -114.6114 186° South 432 497 34,000  Level Salt Lake Center
12:01PM 41.2911 -114.6275 184° South 434 499 34,000  Level Salt Lake Center
12:02PM 41.1689 -114.6400 185° South 435 501 34,000  Level Salt Lake Center
12:03PM 41.0281 -114.6561 185° South 434 499 34,000  Level Salt Lake Center
12:04PM 40.9128 -114.6694 185° South 435 501 34,000  Level Salt Lake Center
12:05PM 40.7972 -114.6836 185° South 435 501 34,000  Level Salt Lake Center
12:06PM 40.6628 -114.6981 185° South 435 501 34,000  Level Salt Lake Center
12:07PM 40.5397 -114.7114 185° South 437 503 34,000  Level Salt Lake Center
12:08PM 40.4167 -114.7258 184° South 439 505 34,000  Level Salt Lake Center
12:10PM 40.2708 -114.7408 185° South 443 510 34,000  Level Salt Lake Center
12:11PM 40.1481 -114.7544 185° South 441 507 34,000  Level Salt Lake Center
12:12PM 40.0336 -114.7672 185° South 443 510 34,000  Level Salt Lake Center
12:13PM 39.8953 -114.7822 185° South 444 511 34,000  Level Salt Lake Center
12:14PM 39.7742 -114.7961 184° South 445 512 34,000  Level Salt Lake Center
12:15PM 39.6369 -114.8100 185° South 447 514 34,000  Level Salt Lake Center
12:16PM 39.5178 -114.8228 185° South 447 514 34,000  Level Salt Lake Center
12:17PM 39.3769 -114.8400 214° Southwest 451 519 34,000  Level Salt Lake Center
12:18PM 39.2825 -114.9236 254° West 444 511 34,000  Level Salt Lake Center
12:19PM 39.2431 -115.0994 255° West 457 526 34,000  Level Salt Lake Center
12:20PM 39.2106 -115.2511 254° West 456 525 34,000  Level Salt Lake Center
12:21PM 39.1722 -115.4278 254° West 458 527 34,000  Level Salt Lake Center
12:22PM 39.1381 -115.5800 254° West 456 525 34,000  Level Salt Lake Center
12:23PM 39.1036 -115.7372 254° West 457 526 34,000  Level Salt Lake Center
12:24PM 39.0678 -115.8956 254° West 459 528 34,000  Level Salt Lake Center
12:25PM 39.0253 -116.0842 253° West 459 528 34,000  Level Salt Lake Center
12:26PM 38.9889 -116.2403 254° West 457 526 34,000  Level Salt Lake Center
12:27PM 38.9533 -116.3975 253° West 458 527 34,000  Level Salt Lake Center
12:28PM 38.9169 -116.5542 254° West 459 528 34,000  Level Salt Lake Center
12:29PM 38.8811 -116.7111 253° West 458 527 34,000  Level Salt Lake Center
12:30PM 38.8383 -116.8953 253° West 454 522 34,000  Level Salt Lake Center
12:31PM 38.8017 -117.0494 253° West 455 524 34,000  Level Salt Lake Center
12:32PM 38.7658 -117.2022 252° West 452 520 34,000  Level Salt Lake Center
12:33PM 38.7275 -117.3556 229° Southwest 453 521 34,000  Level Salt Lake Center
12:34PM 38.6503 -117.4681 219° Southwest 435 501 34,000  Level Salt Lake Center
12:35PM 38.5383 -117.5822 219° Southwest 430 495 34,000  Level Salt Lake Center
12:37PM 38.4456 -117.6775 219° Southwest 430 495 34,000  Level Salt Lake Center
12:38PM 38.3522 -117.7731 351° North 431 496 34,000  Level Salt Lake Center
12:38PM 38.3575 -117.7742 217° Southwest 434 499 34,000  Level Oakland Center
12:39PM 38.2619 -117.8656 219° Southwest 434 499 34,000  Level Oakland Center
12:40PM 38.1664 -117.9647 218° Southwest 434 499 34,000  Level Oakland Center
12:41PM 38.0728 -118.0583 219° Southwest 434 499 34,000  Level Oakland Center
12:42PM 37.9794 -118.1542 218° Southwest 434 499 34,000  Level Oakland Center
12:43PM 37.8856 -118.2472 219° Southwest 434 499 34,000  Level Oakland Center
12:44PM 37.7917 -118.3428 218° Southwest 434 499 34,000  Level Oakland Center
12:45PM 37.6978 -118.4353 218° Southwest 434 499 34,000  Level Oakland Center
12:46PM 37.5997 -118.5303 218° Southwest 439 505 34,000  Level Oakland Center
12:47PM 37.5056 -118.6225 219° Southwest 439 505 34,000  Level Oakland Center
12:48PM 37.4117 -118.7169 219° Southwest 439 505 34,000  Level Oakland Center
12:49PM 37.3072 -118.8219 218° Southwest 439 505 34,000  Level Oakland Center
12:50PM 37.2128 -118.9158 218° Southwest 439 505 34,000  Level Oakland Center
12:51PM 37.1186 -119.0097 218° Southwest 439 505 34,000  Level Oakland Center
12:52PM 37.0242 -119.1006 217° Southwest 439 505 34,000  Level Oakland Center
12:53PM 36.9275 -119.1914 218° Southwest 439 505 34,000  Level Oakland Center
12:54PM 36.8308 -119.2869 217° Southwest 439 505 34,000  Level Oakland Center
12:55PM 36.7361 -119.3747 217° Southwest 439 505 34,000  Level Oakland Center
12:56PM 36.6392 -119.4647 219° Southwest 439 505 34,000  Level Oakland Center
12:57PM 36.5444 -119.5594 217° Southwest 439 505 34,000  Level Oakland Center
12:58PM 36.4475 -119.6517 217° Southwest 439 505 34,000  Level Oakland Center
12:59PM 36.3525 -119.7411 217° Southwest 439 505 34,000  Level Oakland Center
01:00PM 36.2575 -119.8303 217° Southwest 439 505 34,000  Level Oakland Center
01:01PM 36.1603 -119.9217 217° Southwest 439 505 34,000  Level Oakland Center
01:02PM 36.0631 -120.0128 217° Southwest 439 505 34,000  Level Oakland Center
01:03PM 35.9656 -120.1039 215° Southwest 439 505 34,000  Level Oakland Center
01:03PM 35.9158 -120.1472 218° Southwest 436 502 34,000  Level Los Angeles Center
01:04PM 35.8211 -120.2375 218° Southwest 436 502 34,000  Level Los Angeles Center
01:06PM 35.6669 -120.3833 218° Southwest 432 497 34,000  Level Oakland Center
01:07PM 35.5736 -120.4733 221° Southwest 438 504 34,000  Level Oakland Center
01:08PM 35.4781 -120.5758 254° West 443 510 34,000  Level Oakland Center
01:09PM 35.4450 -120.7186 298° West 432 497 34,000  Level Oakland Center
01:10PM 35.5100 -120.8689 345° North 412 474 34,000  Level Oakland Center
01:11PM 35.6519 -120.9147 31° Northeast 407 468 34,000  Level Oakland Center
01:12PM 35.7831 -120.8175 74° East 407 468 34,000  Level Oakland Center
01:13PM 35.8244 -120.6433 78° East 394 453 34,000  Level Oakland Center
01:14PM 35.8553 -120.4664 75° East 455 524 34,000  Level Oakland Center
01:15PM 35.8958 -120.2764 39° Northeast 490 564 34,000 500 Level Oakland Center
01:16PM 36.0161 -120.1547 32° Northeast 513 590 35,000 500 Climbing Oakland Center
01:17PM 36.1489 -120.0531 33° Northeast 531 611 35,000  Level Oakland Center
01:18PM 36.2772 -119.9508 33° Northeast 543 625 35,000  Level Oakland Center
01:19PM 36.4078 -119.8458 33° Northeast 543 625 35,000  Level Oakland Center
01:20PM 36.5381 -119.7406 33° Northeast 548 631 35,000  Level Oakland Center
01:21PM 36.6683 -119.6350 33° Northeast 548 631 35,000  Level Oakland Center
01:22PM 36.7964 -119.5317 34° Northeast 543 625 35,000  Level Oakland Center
01:23PM 36.9244 -119.4253 33° Northeast 543 625 35,000  Level Oakland Center
01:24PM 37.0544 -119.3211 33° Northeast 543 625 35,000  Level Oakland Center
01:25PM 37.1844 -119.2139 34° Northeast 543 625 35,000  Level Oakland Center
01:26PM 37.3119 -119.1064 33° Northeast 543 625 35,000  Level Oakland Center
01:27PM 37.4417 -118.9986 35° Northeast 543 625 35,000  Level Oakland Center
01:28PM 37.5692 -118.8878 34° Northeast 543 625 35,000  Level Oakland Center
01:29PM 37.6986 -118.7792 35° Northeast 553 636 35,000  Level Oakland Center
01:30PM 37.8258 -118.6675 46° Northeast 553 636 35,000  Level Oakland Center
01:31PM 37.9333 -118.5272 50° Northeast 553 636 35,000  Level Oakland Center
01:32PM 38.0325 -118.3764 51° Northeast 547 629 35,000  Level Oakland Center
01:33PM 38.1069 -118.2575 52° Northeast 542 624 35,000  Level Oakland Center
01:34PM 38.2214 -118.0708 50° Northeast 547 629 35,000  Level Oakland Center
01:35PM 38.3078 -117.9378 52° Northeast 547 629 35,000  Level Oakland Center
01:36PM 38.4342 -117.7272 51° Northeast 552 635 35,000  Level Salt Lake Center
01:37PM 38.5303 -117.5731 52° Northeast 549 632 35,000  Level Salt Lake Center
01:38PM 38.6250 -117.4181 52° Northeast 548 631 35,000  Level Salt Lake Center
01:39PM 38.7192 -117.2636 52° Northeast 546 628 35,000  Level Salt Lake Center
01:40PM 38.8128 -117.1094 52° Northeast 545 627 35,000  Level Salt Lake Center
01:41PM 38.9253 -116.9242 52° Northeast 546 628 35,000  Level Salt Lake Center
01:42PM 39.0183 -116.7694 52° Northeast 545 627 35,000  Level Salt Lake Center
01:43PM 39.1158 -116.6086 53° Northeast 546 628 35,000  Level Salt Lake Center
01:44PM 39.2033 -116.4589 35° Northeast 545 627 35,000  Level Salt Lake Center
01:45PM 39.3422 -116.3322 23° Northeast 561 646 35,000  Level Salt Lake Center
01:46PM 39.4761 -116.2586 23° Northeast 556 640 35,000  Level Salt Lake Center
01:47PM 39.6378 -116.1681 23° Northeast 555 639 35,000  Level Salt Lake Center
01:49PM 39.7700 -116.0944 24° Northeast 555 639 35,000  Level Salt Lake Center
01:50PM 39.9275 -116.0047 23° Northeast 555 639 35,000  Level Salt Lake Center
01:51PM 40.0647 -115.9272 16° North 559 643 35,000  Level Salt Lake Center
01:52PM 40.2292 -115.8667 16° North 556 640 35,000  Level Salt Lake Center
01:53PM 40.3725 -115.8142 15° North 561 646 35,000  Level Salt Lake Center
01:54PM 40.5397 -115.7536 23° Northeast 564 649 35,000  Level Salt Lake Center
01:55PM 40.6769 -115.6778 26° Northeast 572 658 35,000  Level Salt Lake Center
01:56PM 40.8342 -115.5742 27° Northeast 570 656 35,000  Level Salt Lake Center
01:57PM 40.9689 -115.4828 28° Northeast 571 657 35,000  Level Salt Lake Center
01:58PM 41.1231 -115.3753 28° Northeast 567 652 35,000  Level Salt Lake Center
01:59PM 41.2556 -115.2814 28° Northeast 564 649 35,000  Level Salt Lake Center
02:00PM 41.4094 -115.1706 28° Northeast 561 646 35,000  Level Salt Lake Center
02:01PM 41.5419 -115.0756 43° Northeast 566 651 35,000  Level Salt Lake Center
02:02PM 41.6694 -114.9175 54° Northeast 565 650 35,000  Level Salt Lake Center
02:03PM 41.7589 -114.7536 54° Northeast 565 650 35,000  Level Salt Lake Center
02:04PM 41.8619 -114.5653 54° Northeast 566 651 35,000  Level Salt Lake Center
02:05PM 41.9617 -114.3794 54° Northeast 567 652 35,000  Level Salt Lake Center
02:06PM 42.0544 -114.2069 54° Northeast 566 651 35,000  Level Salt Lake Center
02:07PM 42.1456 -114.0364 54° Northeast 558 642 35,000  Level Salt Lake Center
02:08PM 42.2375 -113.8647 54° Northeast 558 642 35,000  Level Salt Lake Center
02:09PM 42.3300 -113.6897 54° Northeast 563 648 35,000  Level Salt Lake Center
02:10PM 42.4378 -113.4850 54° Northeast 565 650 35,000  Level Salt Lake Center
02:11PM 42.5292 -113.3114 55° Northeast 562 647 35,000  Level Salt Lake Center
02:12PM 42.6206 -113.1361 55° Northeast 562 647 35,000  Level Salt Lake Center
02:13PM 42.7181 -112.9489 55° Northeast 564 649 35,000  Level Salt Lake Center
02:15PM 42.8042 -112.7794 55° Northeast 566 651 35,000  Level Salt Lake Center
02:16PM 42.9050 -112.5836 55° Northeast 565 650 35,000  Level Salt Lake Center
02:17PM 42.9908 -112.4144 55° Northeast 565 650 35,000  Level Salt Lake Center
02:18PM 43.0911 -112.2178 55° Northeast 564 649 35,000  Level Salt Lake Center
02:19PM 43.1767 -112.0481 55° Northeast 565 650 35,000  Level Salt Lake Center
02:20PM 43.2767 -111.8483 55° Northeast 566 651 35,000  Level Salt Lake Center
02:21PM 43.3608 -111.6797 56° Northeast 563 648 35,000  Level Salt Lake Center
02:22PM 43.4592 -111.4811 56° Northeast 562 647 35,000  Level Salt Lake Center
02:23PM 43.5428 -111.3117 56° Northeast 561 646 35,000  Level Salt Lake Center
02:24PM 43.6381 -111.1147 56° Northeast 558 642 35,000  Level Salt Lake Center
02:25PM 43.7231 -110.9419 56° Northeast 561 646 35,000  Level Salt Lake Center
02:26PM 43.8208 -110.7392 57° Northeast 567 652 35,000  Level Salt Lake Center
02:27PM 43.9033 -110.5658 57° Northeast 565 650 35,000  Level Salt Lake Center
02:28PM 43.9992 -110.3633 57° Northeast 563 648 35,000  Level Salt Lake Center
02:29PM 44.0811 -110.1897 57° Northeast 561 646 35,000  Level Salt Lake Center
02:30PM 44.1769 -109.9858 57° Northeast 563 648 35,000  Level Salt Lake Center
02:31PM 44.2586 -109.8114 57° Northeast 562 647 35,000  Level Salt Lake Center
02:32PM 44.3533 -109.6050 57° Northeast 563 648 35,000  Level Salt Lake Center
02:33PM 44.4350 -109.4297 57° Northeast 563 648 35,000  Level Salt Lake Center
02:34PM 44.5283 -109.2247 58° Northeast 559 643 35,000  Level Salt Lake Center
02:35PM 44.6083 -109.0472 57° Northeast 561 646 35,000  Level Salt Lake Center
02:36PM 44.7025 -108.8397 58° Northeast 562 647 35,000  Level Salt Lake Center
02:37PM 44.7828 -108.6606 58° Northeast 563 648 35,000  Level Salt Lake Center
02:38PM 44.8742 -108.4517 59° Northeast 562 647 35,000  Level Salt Lake Center
02:39PM 44.9514 -108.2708 58° Northeast 561 646 35,000  Level Salt Lake Center
02:41PM 45.0436 -108.0586 57° Northeast 563 648 35,000  Level Salt Lake Center
02:42PM 45.1297 -107.8717 58° Northeast 567 652 35,000  Level Salt Lake Center
02:43PM 45.2183 -107.6678 59° Northeast 567 652 35,000  Level Salt Lake Center
02:44PM 45.2969 -107.4819 58° Northeast 565 650 35,000  Level Salt Lake Center
02:45PM 45.3864 -107.2753 58° Northeast 566 651 35,000  Level Salt Lake Center
02:46PM 45.4628 -107.0981 57° Northeast 567 652 35,000  Level Salt Lake Center
02:47PM 45.5469 -106.9103 57° Northeast 567 652 35,000  Level Salt Lake Center
02:48PM 45.6311 -106.7231 59° Northeast 565 650 35,000  Level Salt Lake Center
02:49PM 45.7275 -106.4928 59° Northeast 563 648 35,000  Level Salt Lake Center
02:50PM 45.8078 -106.2981 60° Northeast 565 650 35,000  Level Salt Lake Center
02:51PM 45.8869 -106.1036 60° Northeast 565 650 35,000  Level Salt Lake Center
02:52PM 45.9656 -105.9053 60° Northeast 567 652 35,000  Level Salt Lake Center
02:53PM 46.0436 -105.7089 60° Northeast 568 654 35,000  Level Salt Lake Center
02:54PM 46.1378 -105.4722 61° Northeast 569 655 35,000  Level Salt Lake Center
02:55PM 46.2147 -105.2733 66° East 569 655 35,000 144 Level Salt Lake Center
02:56PM 46.2775 -105.0642 69° East 568 654 35,300 720 Climbing Salt Lake Center
02:57PM 46.3342 -104.8503 69° East 572 658 36,500 823 Climbing Salt Lake Center
02:58PM 46.3900 -104.6389 69° East 568 654 37,000 242 Climbing Salt Lake Center
02:59PM 46.4567 -104.3800 70° East 571 657 37,000  Level Salt Lake Center
03:00PM 46.5114 -104.1644 70° East 572 658 37,000  Level Salt Lake Center
03:01PM 46.5658 -103.9492 70° East 572 658 37,000  Level Salt Lake Center
03:02PM 46.6206 -103.7342 70° East 572 658 37,000  Level Salt Lake Center
03:03PM 46.6750 -103.5203 70° East 571 657 37,000  Level Salt Lake Center
03:04PM 46.7389 -103.2600 77° East 571 657 37,000  Level Salt Lake Center
03:05PM 46.7728 -103.0378 119° Southeast 576 663 37,000  Level Salt Lake Center
03:06PM 46.7011 -102.8511 164° South 554 638 37,000  Level Salt Lake Center
03:07PM 46.5708 -102.7964 185° South 424 488 37,000  Level Minneapolis Center
03:08PM 46.4397 -102.8131 183° South 405 466 37,000  Level Minneapolis Center
03:09PM 46.3111 -102.8242 184° South 438 504 37,000  Level Minneapolis Center
03:10PM 46.1847 -102.8356 183° South 456 525 37,000  Level Minneapolis Center
03:11PM 46.0564 -102.8467 182° South 467 537 37,000  Level Minneapolis Center
03:12PM 46.0303 -102.8478 184° South 467 537 37,000  Level Salt Lake Center
03:13PM 45.8994 -102.8600 183° South 468 539 37,000  Level Salt Lake Center
03:15PM 45.5394 -102.8875 183° South 454 522 37,000  Level Denver Center
03:16PM 45.4089 -102.8983 184° South 464 534 37,000  Level Denver Center
03:17PM 45.2781 -102.9122 183° South 469 540 37,000  Level Denver Center
03:18PM 45.1494 -102.9228 183° South 474 545 37,000  Level Denver Center
03:19PM 45.0167 -102.9336 183° South 474 545 37,000  Level Denver Center
03:20PM 44.8858 -102.9442 182° South 474 545 37,000  Level Denver Center
03:21PM 44.7547 -102.9519 184° South 474 545 37,000  Level Denver Center
03:22PM 44.6219 -102.9656 183° South 481 554 37,000  Level Denver Center
03:23PM 44.4911 -102.9761 183° South 475 547 37,000  Level Denver Center
03:24PM 44.3622 -102.9864 183° South 475 547 37,000  Level Denver Center
03:25PM 44.2272 -102.9969 180° South 475 547 37,000  Level Denver Center
03:26PM 44.0794 -102.9967 186° South 484 557 37,000  Level Denver Center
03:27PM 43.9633 -103.0147 189° South 479 551 37,000  Level Denver Center
03:28PM 43.8183 -103.0458 190° South 479 551 37,000  Level Denver Center
03:29PM 43.6922 -103.0758 189° South 479 551 37,000  Level Denver Center
03:30PM 43.5597 -103.1061 188° South 479 551 37,000  Level Denver Center
03:31PM 43.4417 -103.1294 190° South 484 557 37,000  Level Denver Center
03:32PM 43.2989 -103.1628 190° South 484 557 37,000  Level Denver Center
03:33PM 43.1706 -103.1953 189° South 484 557 37,000  Level Denver Center
03:34PM 43.0361 -103.2250 189° South 484 557 37,000  Level Denver Center
03:35PM 42.9158 -103.2511 190° South 484 557 37,000  Level Denver Center
03:36PM 42.7856 -103.2831 189° South 484 557 37,000  Level Denver Center
03:37PM 42.6403 -103.3131 190° South 484 557 37,000  Level Denver Center
03:38PM 42.5078 -103.3450 189° South 484 557 37,000  Level Denver Center
03:39PM 42.3897 -103.3703 189° South 484 557 37,000  Level Denver Center
03:40PM 42.2569 -103.3992 189° South 484 557 37,000  Level Denver Center
03:41PM 42.1119 -103.4314 189° South 484 557 37,000  Level Denver Center
03:42PM 41.9814 -103.4597 188° South 484 557 37,000  Level Denver Center
03:43PM 41.8589 -103.4822 182° South 484 557 37,000  Level Denver Center
03:44PM 41.7258 -103.4883 182° South 484 557 37,000  Level Denver Center
03:45PM 41.5778 -103.4950 182° South 479 551 37,000  Level Denver Center
03:46PM 41.4425 -103.5011 183° South 479 551 37,000  Level Denver Center
03:47PM 41.3092 -103.5100 182° South 479 551 37,000  Level Denver Center
03:48PM 41.1886 -103.5153 182° South 479 551 37,000  Level Denver Center
03:49PM 41.0406 -103.5219 183° South 479 551 37,000  Level Denver Center
03:50PM 40.9117 -103.5306 181° South 474 545 37,000  Level Denver Center
03:51PM 40.7761 -103.5336 182° South 475 547 37,000  Level Denver Center
03:52PM 40.6408 -103.5397 183° South 480 552 37,000  Level Denver Center
03:53PM 40.5075 -103.5481 181° South 487 560 37,000  Level Denver Center
03:54PM 40.3700 -103.5514 183° South 487 560 37,000  Level Denver Center
03:55PM 40.2325 -103.5600 182° South 492 566 37,000  Level Denver Center
03:56PM 40.0972 -103.5658 181° South 492 566 37,000  Level Denver Center
03:57PM 39.9761 -103.5683 183° South 492 566 37,000  Level Denver Center
03:58PM 39.8389 -103.5769 181° South 492 566 37,000  Level Denver Center
03:59PM 39.7011 -103.5800 182° South 492 566 37,000  Level Denver Center
04:00PM 39.5658 -103.5856 182° South 497 572 37,000  Level Denver Center
04:01PM 39.4264 -103.5914 183° South 497 572 37,000  Level Denver Center
04:02PM 39.2764 -103.6003 182° South 497 572 37,000  Level Denver Center
04:03PM 39.1408 -103.6058 182° South 497 572 37,000  Level Denver Center
04:04PM 39.0033 -103.6117 182° South 497 572 37,000 250 Level Denver Center
04:05PM 38.8681 -103.6172 183° South 492 566 37,500 500 Climbing Denver Center
04:06PM 38.7328 -103.6253 179° South 492 566 38,000 250 Climbing Denver Center
04:07PM 38.6097 -103.6222 179° South 497 572 38,000  Level Denver Center
04:08PM 38.4761 -103.6197 180° South 492 566 38,000  Level Denver Center
04:09PM 38.3261 -103.6206 180° South 492 566 38,000  Level Denver Center
04:10PM 38.1925 -103.6206 180° South 492 566 38,000  Level Denver Center
04:11PM 38.0675 -103.6203 179° South 492 566 38,000  Level Denver Center
04:13PM 37.8292 -103.6150 180° South 489 563 38,000  Level Albuquerque Center
04:14PM 37.6936 -103.6139 180° South 489 563 38,000  Level Albuquerque Center
04:15PM 37.5433 -103.6133 180° South 489 563 38,000  Level Albuquerque Center
04:16PM 37.4119 -103.6119 179° South 489 563 38,000  Level Albuquerque Center
04:17PM 37.2742 -103.6083 155° Southeast 489 563 38,000  Level Albuquerque Center
04:18PM 37.1636 -103.5433 153° Southeast 478 550 38,000  Level Albuquerque Center
04:19PM 37.0444 -103.4686 165° South 478 550 38,000  Level Albuquerque Center
04:20PM 36.9011 -103.4214 171° South 485 558 38,000  Level Albuquerque Center
04:21PM 36.7686 -103.3942 180° South 485 558 38,000  Level Albuquerque Center
04:22PM 36.6456 -103.3953 182° South 492 566 38,000  Level Albuquerque Center
04:23PM 36.5103 -103.3997 193° South 492 566 38,000  Level Albuquerque Center
04:24PM 36.3819 -103.4372 209° Southwest 492 566 38,000  Level Albuquerque Center
04:25PM 36.2617 -103.5206 205° Southwest 488 562 38,000  Level Albuquerque Center
04:26PM 36.1264 -103.5989 182° South 494 568 38,000  Level Albuquerque Center
04:27PM 35.9889 -103.6056 180° South 488 562 38,000  Level Albuquerque Center
04:28PM 35.8511 -103.6044 179° South 498 573 38,000  Level Albuquerque Center
04:29PM 35.7114 -103.6008 180° South 498 573 38,000  Level Albuquerque Center
04:30PM 35.5756 -103.5994 180° South 498 573 38,000  Level Albuquerque Center
04:31PM 35.4378 -103.6008 180° South 498 573 38,000  Level Albuquerque Center
04:32PM 35.3003 -103.5997 179° South 498 573 38,000  Level Albuquerque Center
04:33PM 35.1750 -103.5978 179° South 498 573 38,000  Level Albuquerque Center
04:34PM 35.0369 -103.5942 180° South 498 573 38,000  Level Albuquerque Center
04:35PM 34.8992 -103.5928 178° South 498 573 38,000  Level Albuquerque Center
04:36PM 34.7633 -103.5864 180° South 498 573 38,000  Level Albuquerque Center
04:37PM 34.6133 -103.5858 178° South 498 573 38,000  Level Albuquerque Center
04:38PM 34.4753 -103.5797 179° South 498 573 38,000  Level Albuquerque Center
04:39PM 34.3353 -103.5758 197° South 505 581 38,000  Level Albuquerque Center
04:40PM 34.2197 -103.6189 357° North 490 564 38,000  Level Albuquerque Center
04:47PM 34.8117 -103.6575 North 456 525 38,000  Level Albuquerque Center
04:48PM 34.9425 -103.6364 North 468 539 38,000  Level Albuquerque Center
04:49PM 35.0753 -103.6150 North 468 539 38,000  Level Albuquerque Center
04:50PM 35.2042 -103.5989 359° North 468 539 38,000  Level Albuquerque Center
04:51PM 35.3356 -103.6006 360° North 468 539 38,000  Level Albuquerque Center
04:52PM 35.4692 -103.5994 360° North 468 539 38,000  Level Albuquerque Center
04:53PM 35.6006 -103.6008 360° North 473 544 38,000  Level Albuquerque Center
04:54PM 35.7322 -103.6022 360° North 472 543 38,000  Level Albuquerque Center
04:55PM 35.8658 -103.6036 360° North 472 543 38,000  Level Albuquerque Center
04:56PM 35.9994 -103.6050 360° North 477 549 38,000  Level Albuquerque Center
04:57PM 36.1308 -103.6064 North 477 549 38,000  Level Albuquerque Center
04:58PM 36.2622 -103.6028 359° North 477 549 38,000  Level Albuquerque Center
04:59PM 36.4083 -103.6061 360° North 477 549 38,000  Level Albuquerque Center
05:00PM 36.5378 -103.6050 359° North 477 549 38,000  Level Albuquerque Center
05:01PM 36.6733 -103.6089 360° North 477 549 38,000  Level Albuquerque Center
05:02PM 36.7944 -103.6083 356° North 477 549 38,000  Level Albuquerque Center
05:04PM 37.0067 -103.6281 355° North 490 564 38,000  Level Denver Center
05:05PM 37.1550 -103.6456 359° North 483 556 38,000  Level Denver Center
05:06PM 37.2886 -103.6483 360° North 483 556 38,000  Level Denver Center
05:07PM 37.4114 -103.6486 352° North 483 556 38,000  Level Denver Center
05:08PM 37.5558 -103.6744 352° North 483 556 38,000  Level Denver Center
05:09PM 37.6900 -103.6981 352° North 483 556 38,000  Level Denver Center
05:10PM 37.8114 -103.7197 357° North 483 556 38,000  Level Denver Center
05:11PM 37.9597 -103.7300 North 483 556 38,000  Level Denver Center
05:12PM 38.0925 -103.7089 19° North 483 556 38,000  Level Denver Center
05:13PM 38.2081 -103.6569 18° North 478 550 38,000  Level Denver Center
05:14PM 38.3361 -103.6042 18° North 478 550 38,000  Level Denver Center
05:15PM 38.4783 -103.5453 18° North 483 556 38,000  Level Denver Center
05:16PM 38.6042 -103.4922 North 478 550 38,000  Level Denver Center
05:17PM 38.7289 -103.4764 North 483 556 38,000  Level Denver Center
05:18PM 38.8725 -103.4703 360° North 478 550 38,000  Level Denver Center
05:19PM 38.9956 -103.4703 359° North 478 550 38,000  Level Denver Center
05:20PM 39.1292 -103.4725 360° North 478 550 38,000  Level Denver Center
05:21PM 39.2667 -103.4719 360° North 483 556 38,000  Level Denver Center
05:22PM 39.3981 -103.4717 359° North 478 550 38,000  Level Denver Center
05:23PM 39.5339 -103.4739 360° North 478 550 38,000  Level Denver Center
05:24PM 39.6650 -103.4736 360° North 478 550 38,000  Level Denver Center
05:25PM 39.8028 -103.4731 360° North 478 550 38,000  Level Denver Center
05:26PM 39.9342 -103.4725 358° North 478 550 38,000  Level Denver Center
05:27PM 40.0719 -103.4775 North 478 550 38,000  Level Denver Center
05:28PM 40.2094 -103.4739 360° North 490 564 38,000  Level Denver Center
05:29PM 40.3553 -103.4731 358° North 484 557 38,000  Level Denver Center
05:30PM 40.4911 -103.4778 360° North 484 557 38,000  Level Denver Center
05:31PM 40.6267 -103.4772 359° North 479 551 38,000  Level Denver Center
05:32PM 40.7642 -103.4794 360° North 487 560 38,000  Level Denver Center
05:33PM 40.8978 -103.4789 359° North 482 555 38,000  Level Denver Center
05:34PM 41.0292 -103.4811 360° North 475 547 38,000  Level Denver Center
05:35PM 41.1647 -103.4806 360° North 475 547 38,000  Level Denver Center
05:36PM 41.2856 -103.4806 360° North 487 560 38,000  Level Denver Center
05:37PM 41.4231 -103.4800 360° North 487 560 38,000  Level Denver Center
05:38PM 41.5756 -103.4811 360° North 492 566 38,000  Level Denver Center
05:39PM 41.7108 -103.4806 North 492 566 38,000  Level Denver Center
05:40PM 41.8339 -103.4778 North 492 566 38,000  Level Denver Center
05:41PM 41.9856 -103.4594 10° North 493 567 38,000  Level Denver Center
05:43PM 42.2592 -103.3964 North 498 573 38,000  Level Denver Center
05:44PM 42.3814 -103.3708 North 504 580 38,000  Level Denver Center
05:45PM 42.5328 -103.3381 10° North 499 574 38,000  Level Denver Center
05:46PM 42.6694 -103.3058 North 499 574 38,000  Level Denver Center
05:47PM 42.7917 -103.2800 10° North 499 574 38,000  Level Denver Center
05:48PM 42.9283 -103.2475 North 499 574 38,000  Level Denver Center
05:49PM 43.0775 -103.2144 North 499 574 38,000  Level Denver Center
05:50PM 43.2161 -103.1844 10° North 499 574 38,000  Level Denver Center
05:51PM 43.3361 -103.1553 North 499 574 38,000  Level Denver Center
05:52PM 43.4894 -103.1214 North 499 574 38,000  Level Denver Center
05:53PM 43.6281 -103.0908 North 505 581 38,000  Level Denver Center
05:54PM 43.7647 -103.0603 11° North 505 581 38,000  Level Denver Center
05:55PM 43.8886 -103.0275 North 500 575 38,000  Level Denver Center
05:56PM 44.0400 -103.0047 North 500 575 38,000  Level Denver Center
05:57PM 44.1817 -102.9997 North 495 570 38,000  Level Denver Center
05:58PM 44.3167 -102.9889 North 489 563 38,000  Level Denver Center
06:00PM 44.5656 -102.9708 North 501 577 38,000  Level Minneapolis Center
06:01PM 44.7044 -102.9589 North 501 577 38,000  Level Minneapolis Center
06:02PM 44.8436 -102.9469 North 501 577 38,000  Level Minneapolis Center
06:03PM 44.9806 -102.9347 North 501 577 38,000  Level Minneapolis Center
06:04PM 45.1236 -102.9233 North 506 582 38,000  Level Minneapolis Center
06:05PM 45.2625 -102.9142 North 506 582 38,000  Level Minneapolis Center
06:06PM 45.4075 -102.9033 North 506 582 38,000  Level Minneapolis Center
06:07PM 45.5556 -102.8839 North 499 574 38,000  Level Minneapolis Center
06:08PM 45.6944 -102.8747 North 499 574 38,000  Level Minneapolis Center
06:09PM 45.8353 -102.8658 North 504 580 38,000  Level Minneapolis Center
06:10PM 45.9744 -102.8506 North 504 580 38,000  Level Minneapolis Center
06:11PM 46.1133 -102.8414 North 504 580 38,000  Level Minneapolis Center
06:12PM 46.2525 -102.8261 North 504 580 38,000  Level Minneapolis Center
06:13PM 46.3914 -102.8169 North 504 580 38,000  Level Minneapolis Center
06:14PM 46.5325 -102.8019 North 504 580 38,000  Level Minneapolis Center
06:15PM 46.6736 -102.7900 21° North 510 587 38,000  Level Minneapolis Center
06:16PM 46.8053 -102.7153 68° East 498 573 38,000  Level Minneapolis Center
06:17PM 46.8617 -102.5086 89° East 463 533 38,000  Level Minneapolis Center
06:18PM 46.8633 -102.2744 89° East 492 566 38,000  Level Minneapolis Center
06:19PM 46.8661 -102.0464 91° East 524 603 38,000  Level Minneapolis Center
06:20PM 46.8622 -101.8172 89° East 552 635 38,000  Level Minneapolis Center
06:21PM 46.8656 -101.5956 91° East 559 643 38,000  Level Minneapolis Center
06:22PM 46.8631 -101.3669 90° East 554 638 38,000  Level Minneapolis Center
06:23PM 46.8619 -101.1353 91° East 561 646 38,000  Level Minneapolis Center
06:24PM 46.8603 -100.9100 90° East 561 646 38,000  Level Minneapolis Center
06:25PM 46.8606 -100.6786 91° East 561 646 38,000  Level Minneapolis Center
06:26PM 46.8581 -100.4500 91° East 561 646 38,000  Level Minneapolis Center
06:27PM 46.8550 -100.2247 91° East 561 646 38,000  Level Minneapolis Center
06:28PM 46.8514 -99.9992 91° East 561 646 38,000  Level Minneapolis Center
06:29PM 46.8475 -99.7706 92° East 561 646 38,000  Level Minneapolis Center
06:30PM 46.8431 -99.5453 92° East 561 646 38,000  Level Minneapolis Center
06:31PM 46.8361 -99.3194 92° East 561 646 38,000  Level Minneapolis Center
06:32PM 46.8311 -99.0911 92° East 556 640 38,000  Level Minneapolis Center
06:33PM 46.8250 -98.8686 92° East 561 646 38,000  Level Minneapolis Center
06:34PM 46.8189 -98.6433 93° East 561 646 38,000  Level Minneapolis Center
06:35PM 46.8100 -98.4178 93° East 561 646 38,000  Level Minneapolis Center
06:36PM 46.8008 -98.1953 92° East 554 638 38,000  Level Minneapolis Center
06:37PM 46.7956 -97.9672 94° East 560 644 38,000  Level Minneapolis Center
06:38PM 46.7853 -97.7450 92° East 555 639 38,000  Level Minneapolis Center
06:39PM 46.7789 -97.5197 93° East 561 646 38,000  Level Minneapolis Center
06:40PM 46.7700 -97.2978 93° East 556 640 38,000  Level Minneapolis Center
06:41PM 46.7628 -97.0731 94° East 556 640 38,000  Level Minneapolis Center
06:42PM 46.7528 -96.8511 88° East 556 640 38,000  Level Minneapolis Center
06:43PM 46.7572 -96.6269 87° East 556 640 38,000  Level Minneapolis Center
06:44PM 46.7653 -96.4061 87° East 551 634 38,000  Level Minneapolis Center
06:45PM 46.7731 -96.1822 89° East 551 634 38,000  Level Minneapolis Center
06:46PM 46.7758 -95.9642 88° East 546 628 38,000  Level Minneapolis Center
06:47PM 46.7806 -95.7431 88° East 546 628 38,000  Level Minneapolis Center
06:48PM 46.7869 -95.5219 89° East 546 628 38,000 150 Level Minneapolis Center
06:49PM 46.7906 -95.3006 88° East 546 628 38,300 496 Climbing Minneapolis Center
06:50PM 46.7961 -95.0794 90° East 546 628 39,000 353 Climbing Minneapolis Center
06:51PM 46.7969 -94.8611 89° East 546 628 39,000 -50 Level Minneapolis Center
06:52PM 46.7994 -94.6428 89° East 541 623 38,900  Descending Minneapolis Center
06:53PM 46.8017 -94.4217 89° East 541 623 39,000 50 Climbing Minneapolis Center
06:54PM 46.8033 -94.2033 90° East 536 617 39,000 500 Level Minneapolis Center
06:55PM 46.8044 -93.9789 89° East 536 617 40,000 450 Climbing Minneapolis Center
06:56PM 46.8075 -93.7697 91° East 531 611 39,900  Descending Minneapolis Center
06:57PM 46.8058 -93.5544 91° East 531 611 40,000 50 Climbing Minneapolis Center
06:58PM 46.8036 -93.3358 89° East 531 611 40,000  Level Minneapolis Center
06:59PM 46.8053 -93.1206 91° East 531 611 40,000  Level Minneapolis Center
07:00PM 46.8025 -92.9022 90° East 531 611 40,000 -50 Level Minneapolis Center
07:01PM 46.8033 -92.6869 96° East 531 611 39,900 -50 Descending Minneapolis Center
07:02PM 46.7872 -92.4781 140° Southeast 531 611 39,900 50 Level Minneapolis Center
07:03PM 46.6819 -92.3497 187° South 474 545 40,000 50 Climbing Minneapolis Center
07:04PM 46.5550 -92.3733 208° Southwest 386 444 40,000  Level Minneapolis Center
07:05PM 46.4433 -92.4600 207° Southwest 391 450 40,000  Level Minneapolis Center
07:06PM 46.3294 -92.5433 207° Southwest 425 489 40,000  Level Minneapolis Center
07:07PM 46.2156 -92.6261 208° Southwest 443 510 40,000  Level Minneapolis Center
07:08PM 46.1100 -92.7083 207° Southwest 443 510 40,000  Level Minneapolis Center
07:09PM 45.9958 -92.7936 206° Southwest 456 525 40,000  Level Minneapolis Center
07:10PM 45.8817 -92.8725 205° Southwest 456 525 40,000  Level Minneapolis Center
07:11PM 45.7675 -92.9481 206° Southwest 456 525 40,000  Level Minneapolis Center
07:12PM 45.6533 -93.0292 205° Southwest 461 531 40,000  Level Minneapolis Center
07:13PM 45.5389 -93.1069 207° Southwest 461 531 40,000  Level Minneapolis Center
07:14PM 45.4225 -93.1906 205° Southwest 461 531 40,000  Level Minneapolis Center
07:15PM 45.3081 -93.2678 206° Southwest 463 533 40,000  Level Minneapolis Center
07:16PM 45.1936 -93.3478 206° Southwest 463 533 40,000  Level Minneapolis Center
07:17PM 45.0894 -93.4183 204° Southwest 463 533 40,000  Level Minneapolis Center
07:18PM 44.9728 -93.4917 205° Southwest 463 533 40,000  Level Minneapolis Center
07:19PM 44.8414 -93.5767 203° Southwest 473 544 40,000  Level Minneapolis Center
07:20PM 44.7206 -93.6492 203° Southwest 478 550 40,000  Level Minneapolis Center
07:21PM 44.6017 -93.7217 203° Southwest 478 550 40,000  Level Minneapolis Center
07:22PM 44.4953 -93.7853 204° Southwest 478 550 40,000  Level Minneapolis Center
07:23PM 44.3742 -93.8600 205° Southwest 478 550 40,000  Level Minneapolis Center
07:24PM 44.2572 -93.9344 203° Southwest 478 550 40,000  Level Minneapolis Center
07:25PM 44.1361 -94.0058 204° Southwest 478 550 40,000  Level Minneapolis Center
07:26PM 44.0192 -94.0794 202° Southwest 473 544 40,000  Level Minneapolis Center
07:27PM 43.8958 -94.1503 204° Southwest 473 544 40,000  Level Minneapolis Center
07:28PM 43.7786 -94.2236 204° Southwest 473 544 40,000  Level Minneapolis Center
07:29PM 43.6531 -94.2992 203° Southwest 459 528 40,000  Level Minneapolis Center
07:30PM 43.5317 -94.3719 204° Southwest 471 542 40,000  Level Minneapolis Center
07:31PM 43.4103 -94.4469 203° Southwest 479 551 40,000  Level Minneapolis Center
07:32PM 43.2889 -94.5161 204° Southwest 479 551 40,000  Level Minneapolis Center
07:33PM 43.1694 -94.5881 204° Southwest 479 551 40,000  Level Minneapolis Center
07:34PM 43.0519 -94.6597 203° Southwest 474 545 40,000  Level Minneapolis Center
07:35PM 42.9389 -94.7253 204° Southwest 484 557 40,000  Level Minneapolis Center
07:36PM 42.8172 -94.7989 204° Southwest 485 558 40,000  Level Minneapolis Center
07:37PM 42.6975 -94.8697 203° Southwest 479 551 40,000  Level Minneapolis Center
07:38PM 42.5781 -94.9400 203° Southwest 479 551 40,000  Level Minneapolis Center
07:39PM 42.4542 -95.0128 202° Southwest 479 551 40,000  Level Minneapolis Center
07:40PM 42.3325 -95.0797 203° Southwest 479 551 40,000  Level Minneapolis Center
07:41PM 42.2086 -95.1519 203° Southwest 479 551 40,000  Level Minneapolis Center
07:42PM 42.0844 -95.2242 202° Southwest 479 551 40,000  Level Minneapolis Center
07:43PM 41.9606 -95.2931 203° Southwest 479 551 40,000  Level Minneapolis Center
07:44PM 41.8386 -95.3617 202° Southwest 479 551 40,000  Level Minneapolis Center
07:45PM 41.7147 -95.4300 203° Southwest 479 551 40,000  Level Minneapolis Center
07:46PM 41.5886 -95.5006 202° Southwest 484 557 40,000  Level Minneapolis Center
07:47PM 41.4644 -95.5686 204° Southwest 484 557 40,000  Level Minneapolis Center
07:48PM 41.3403 -95.6414 203° Southwest 484 557 40,000  Level Minneapolis Center
07:49PM 41.2161 -95.7114 202° Southwest 479 551 40,000  Level Minneapolis Center
07:50PM 41.0728 -95.7889 203° Southwest 495 570 40,000  Level Minneapolis Center
07:51PM 40.9464 -95.8608 203° Southwest 505 581 40,000  Level Minneapolis Center
07:52PM 40.8242 -95.9300 203° Southwest 494 568 40,000  Level Minneapolis Center
07:54PM 40.5267 -96.0994 203° Southwest 485 558 40,000  Level Kansas City Center
07:55PM 40.4028 -96.1675 204° Southwest 490 564 40,000  Level Kansas City Center
07:56PM 40.2875 -96.2356 203° Southwest 500 575 40,000  Level Kansas City Center
07:57PM 40.1656 -96.3031 202° Southwest 500 575 40,000  Level Kansas City Center
07:58PM 40.0247 -96.3781 203° Southwest 500 575 40,000  Level Kansas City Center
07:59PM 39.9008 -96.4481 202° Southwest 494 568 40,000  Level Kansas City Center
08:00PM 39.7853 -96.5097 202° Southwest 494 568 40,000  Level Kansas City Center
08:01PM 39.6444 -96.5839 204° Southwest 499 574 40,000  Level Kansas City Center
08:02PM 39.5222 -96.6531 203° Southwest 494 568 40,000  Level Kansas City Center
08:03PM 39.3917 -96.7242 202° Southwest 499 574 40,000  Level Kansas City Center
08:04PM 39.2803 -96.7825 203° Southwest 493 567 40,000  Level Kansas City Center
08:05PM 39.1433 -96.8586 201° Southwest 493 567 40,000  Level Kansas City Center
08:06PM 39.0147 -96.9211 202° Southwest 493 567 40,000  Level Kansas City Center
08:07PM 38.9053 -96.9789 204° Southwest 493 567 40,000  Level Kansas City Center
08:08PM 38.7808 -97.0492 202° Southwest 493 567 40,000  Level Kansas City Center
08:09PM 38.6542 -97.1142 202° Southwest 493 567 40,000  Level Kansas City Center
08:10PM 38.5275 -97.1811 203° Southwest 493 567 40,000  Level Kansas City Center
08:11PM 38.4053 -97.2458 201° Southwest 481 554 40,000  Level Kansas City Center
08:12PM 38.2808 -97.3072 202° Southwest 481 554 40,000  Level Kansas City Center
08:13PM 38.1561 -97.3711 202° Southwest 481 554 40,000  Level Kansas City Center
08:14PM 38.0336 -97.4350 203° Southwest 481 554 40,000  Level Kansas City Center
08:15PM 37.9025 -97.5064 204° Southwest 469 540 40,000  Level Kansas City Center
08:16PM 37.7819 -97.5750 196° South 469 540 40,000  Level Kansas City Center
08:17PM 37.6494 -97.6222 189° South 493 567 40,000  Level Kansas City Center
08:18PM 37.5297 -97.6461 193° South 493 567 40,000  Level Kansas City Center
08:19PM 37.4017 -97.6825 193° South 488 562 40,000  Level Kansas City Center
08:20PM 37.2586 -97.7236 193° South 483 556 40,000  Level Kansas City Center
08:21PM 37.1303 -97.7597 192° South 478 550 40,000  Level Kansas City Center
08:22PM 37.0003 -97.7933 193° South 478 550 40,000  Level Kansas City Center
08:23PM 36.8739 -97.8294 194° South 472 543 40,000  Level Kansas City Center
08:24PM 36.7456 -97.8681 192° South 472 543 40,000  Level Kansas City Center
08:25PM 36.6175 -97.9014 190° South 472 543 40,000  Level Kansas City Center
08:26PM 36.4936 -97.9294 193° South 465 535 40,000  Level Kansas City Center
08:28PM 36.2283 -98.0028 192° South 472 543 40,000  Level Fort Worth Center
08:29PM 36.0969 -98.0378 192° South 472 543 40,000  Level Fort Worth Center
08:30PM 35.9694 -98.0725 192° South 472 543 40,000  Level Fort Worth Center
08:31PM 35.8400 -98.1075 193° South 472 543 40,000  Level Fort Worth Center
08:32PM 35.7147 -98.1422 194° South 472 543 40,000  Level Fort Worth Center
08:33PM 35.6019 -98.1769 192° South 467 537 40,000  Level Fort Worth Center
08:34PM 35.4703 -98.2114 192° South 472 543 40,000  Level Fort Worth Center
08:35PM 35.3389 -98.2458 193° South 472 543 40,000  Level Fort Worth Center
08:36PM 35.2133 -98.2800 193° South 477 549 40,000  Level Fort Worth Center
08:37PM 35.0797 -98.3167 191° South 477 549 40,000  Level Fort Worth Center
08:38PM 34.9500 -98.3483 192° South 477 549 40,000  Level Fort Worth Center
08:39PM 34.8058 -98.3872 192° South 477 549 40,000  Level Fort Worth Center
08:40PM 34.6742 -98.4211 193° South 482 555 40,000  Level Fort Worth Center
08:41PM 34.5444 -98.4572 189° South 482 555 40,000  Level Fort Worth Center
08:42PM 34.4297 -98.4786 192° South 482 555 40,000  Level Fort Worth Center
08:43PM 34.2978 -98.5122 205° Southwest 482 555 40,000  Level Fort Worth Center
08:44PM 34.1783 -98.5783 259° West 482 555 40,000  Level Fort Worth Center
08:45PM 34.1539 -98.7261 312° West 420 483 40,000  Level Fort Worth Center
08:46PM 34.2403 -98.8431 11° North 353 406 40,000  Level Fort Worth Center
08:47PM 34.3700 -98.8125 54° Northeast 314 361 40,000  Level Fort Worth Center
08:48PM 34.4508 -98.6753 57° Northeast 336 387 40,000  Level Fort Worth Center
08:49PM 34.5250 -98.5378 43° Northeast 415 478 40,000  Level Fort Worth Center
08:50PM 34.6156 -98.4356 12° North 429 494 40,000  Level Fort Worth Center
08:51PM 34.7472 -98.4017 13° North 435 501 40,000 500 Level Fort Worth Center
08:52PM 34.8894 -98.3628 12° North 453 521 41,000 500 Climbing Fort Worth Center
08:53PM 35.0211 -98.3289 12° North 467 537 41,000  Level Fort Worth Center
08:54PM 35.1550 -98.2947 12° North 478 550 41,000  Level Fort Worth Center
08:55PM 35.2822 -98.2603 12° North 478 550 41,000  Level Fort Worth Center
08:56PM 35.4161 -98.2261 12° North 478 550 41,000  Level Fort Worth Center
08:57PM 35.5350 -98.1942 12° North 478 550 41,000  Level Fort Worth Center
08:58PM 35.6667 -98.1597 13° North 478 550 41,000  Level Fort Worth Center
09:00PM 35.9550 -98.0753 10° North 485 558 41,000  Level Kansas City Center
09:01PM 36.0917 -98.0456 13° North 485 558 41,000  Level Kansas City Center
09:02PM 36.2200 -98.0075 13° North 485 558 41,000  Level Kansas City Center
09:03PM 36.3506 -97.9694 12° North 485 558 41,000  Level Kansas City Center
09:04PM 36.4831 -97.9342 11° North 479 551 41,000  Level Kansas City Center
09:05PM 36.6111 -97.9036 12° North 473 544 41,000  Level Kansas City Center
09:06PM 36.7436 -97.8681 13° North 473 544 41,000  Level Kansas City Center
09:07PM 36.8719 -97.8319 13° North 473 544 41,000  Level Kansas City Center
09:08PM 37.0044 -97.7936 12° North 473 544 41,000  Level Kansas City Center
09:09PM 37.1347 -97.7575 12° North 478 550 41,000  Level Kansas City Center
09:10PM 37.2669 -97.7214 13° North 478 550 41,000  Level Kansas City Center
09:11PM 37.3975 -97.6825 13° North 478 550 41,000  Level Kansas City Center
09:12PM 37.5278 -97.6458 11° North 473 544 41,000  Level Kansas City Center
09:13PM 37.6475 -97.6167 15° North 473 544 41,000  Level Kansas City Center
09:14PM 37.7925 -97.5675 23° Northeast 484 557 41,000  Level Kansas City Center
09:15PM 37.9153 -97.5017 25° Northeast 484 557 41,000  Level Kansas City Center
09:16PM 38.0358 -97.4300 21° North 472 543 41,000  Level Kansas City Center
09:17PM 38.1625 -97.3689 22° Northeast 472 543 41,000  Level Kansas City Center
09:18PM 38.2869 -97.3047 21° North 477 549 41,000  Level Kansas City Center
09:19PM 38.4117 -97.2433 23° Northeast 477 549 41,000  Level Kansas City Center
09:20PM 38.5319 -97.1786 22° Northeast 477 549 41,000  Level Kansas City Center
09:21PM 38.6542 -97.1142 22° Northeast 477 549 41,000  Level Kansas City Center
09:22PM 38.7764 -97.0519 23° Northeast 477 549 41,000  Level Kansas City Center
09:23PM 38.8967 -96.9867 24° Northeast 477 549 41,000  Level Kansas City Center
09:24PM 39.0128 -96.9211 21° North 466 536 41,000  Level Kansas City Center
09:25PM 39.1328 -96.8608 23° Northeast 462 532 41,000  Level Kansas City Center
09:26PM 39.2403 -96.8028 23° Northeast 462 532 41,000  Level Kansas City Center
09:30PM 39.6194 -96.5956 23° Northeast 459 528 41,000  Level Minneapolis Center
09:31PM 39.7378 -96.5314 22° Northeast 447 514 41,000  Level Minneapolis Center
09:32PM 39.8644 -96.4644 23° Northeast 442 509 41,000  Level Minneapolis Center
09:33PM 39.9828 -96.4000 23° Northeast 447 514 41,000  Level Minneapolis Center
09:34PM 40.1008 -96.3350 24° Northeast 457 526 41,000  Level Minneapolis Center
09:35PM 40.2192 -96.2672 22° Northeast 457 526 41,000  Level Minneapolis Center
09:36PM 40.3372 -96.2044 24° Northeast 457 526 41,000  Level Minneapolis Center
09:37PM 40.4553 -96.1361 21° North 463 533 41,000  Level Minneapolis Center
09:38PM 40.5775 -96.0731 24° Northeast 463 533 41,000  Level Minneapolis Center
09:39PM 40.6956 -96.0042 24° Northeast 463 533 41,000  Level Minneapolis Center
09:40PM 40.8136 -95.9353 22° Northeast 463 533 41,000  Level Minneapolis Center
09:41PM 40.9317 -95.8711 24° Northeast 463 533 41,000  Level Minneapolis Center
09:42PM 41.0414 -95.8067 23° Northeast 463 533 41,000  Level Minneapolis Center
09:43PM 41.1803 -95.7294 22° Northeast 475 547 41,000  Level Minneapolis Center
09:44PM 41.3003 -95.6650 24° Northeast 480 552 41,000  Level Minneapolis Center
09:45PM 41.4056 -95.6025 23° Northeast 467 537 41,000  Level Minneapolis Center
09:46PM 41.5233 -95.5372 23° Northeast 462 532 41,000  Level Minneapolis Center
09:47PM 41.6475 -95.4667 22° Northeast 467 537 41,000  Level Minneapolis Center
09:48PM 41.7672 -95.4011 22° Northeast 467 537 41,000  Level Minneapolis Center
09:49PM 41.8869 -95.3353 23° Northeast 461 531 41,000  Level Minneapolis Center
09:50PM 42.0069 -95.2664 304° West 461 531 41,000 10 Level Minneapolis Center
09:57PM 41.7658 -97.8225 316° Northwest  Level FlightAware Approximate
10:05PM 41.4650 -100.3838 335° Northwest  Level FlightAware Approximate
10:13PM 41.1079 -102.9193 359° North  Level FlightAware Approximate
10:21PM 40.6959 -105.4253 20° North  Level FlightAware Approximate
10:29PM 40.2304 -107.8985 33° Northeast  Level FlightAware Approximate
10:37PM 39.7130 -110.3360 41° Northeast  Level FlightAware Approximate
10:45PM 39.1454 -112.7356 46° Northeast  Level FlightAware Approximate
10:53PM 39.2036 -115.2164 51° Northeast  Level FlightAware Approximate
11:01PM 38.5653 -117.5274 53° Northeast  Level FlightAware Approximate
11:09PM 37.0477 -119.0527 50° Northeast  Level FlightAware Approximate
11:17PM 36.3498 -119.7280 49° Northeast  Level FlightAware Approximate
11:25PM 36.0077 -120.1441 49° Northeast  Level FlightAware Approximate
11:33PM 37.6267 -118.8132 51° Northeast  Level FlightAware Approximate
11:41PM 38.5986 -116.9850 52° Northeast  Level FlightAware Approximate
11:42PM 45.4397 -102.9919 174° South 445 512 42,100  Level Minneapolis Center
11:42PM 45.4019 -102.9864 186° South 444 511 42,100  Level Salt Lake Center
11:43PM 45.2797 -103.0044 186° South 443 510 42,100  Level Salt Lake Center
11:44PM 45.1583 -103.0222 186° South 443 510 42,100  Level Salt Lake Center
11:45PM 45.0208 -103.0433 189° South 444 511 42,100  Level Salt Lake Center
11:46PM 44.8997 -103.0694 187° South 452 520 42,100  Level Denver Center
11:47PM 44.7775 -103.0908 185° South 452 520 42,100  Level Denver Center
11:48PM 44.6572 -103.1064 186° South 452 520 42,100  Level Denver Center
11:49PM 44.5308 -103.1250 186° South 446 513 42,100  Level Denver Center
11:50PM 44.4086 -103.1433 186° South 446 513 42,100  Level Denver Center
11:51PM 44.2819 -103.1619 183° South 452 520 42,100  Level Denver Center
11:52PM 44.1553 -103.1717 185° South 452 520 42,100  Level Denver Center
11:53PM 44.0308 -103.1869 187° South 458 527 42,100  Level Denver Center
11:54PM 43.9064 -103.2081 185° South 458 527 42,100  Level Denver Center
11:55PM 43.7942 -103.2228 185° South 458 527 42,100  Level Denver Center
11:56PM 43.6572 -103.2386 186° South 458 527 42,100  Level Denver Center
11:57PM 43.5328 -103.2564 186° South 463 533 42,100  Level Denver Center
11:58PM 43.4083 -103.2742 186° South 458 527 42,100  Level Denver Center
11:59PM 43.2961 -103.2914 185° South 458 527 42,100  Level Denver Center
12:00AM 43.1694 -103.3064 186° South 458 527 42,100  Level Denver Center
12:01AM 43.0347 -103.3272 185° South 458 527 42,100  Level Denver Center
12:02AM 42.9100 -103.3419 185° South 458 527 42,100  Level Denver Center
12:03AM 42.8000 -103.3558 186° South 458 527 42,100  Level Denver Center
12:04AM 42.6733 -103.3733 186° South 458 527 42,100  Level Denver Center
12:05AM 42.5361 -103.3942 186° South 458 527 42,100  Level Denver Center
12:06AM 42.4094 -103.4114 184° South 458 527 42,100  Level Denver Center
12:07AM 42.2972 -103.4225 186° South 458 527 42,100  Level Denver Center
12:08AM 42.1706 -103.4397 187° South 465 535 42,100  Level Denver Center
12:09AM 42.0294 -103.4631 203° Southwest 460 529 42,100  Level Denver Center
12:10AM 41.9206 -103.5267 256° West 445 512 42,100  Level Denver Center
12:11AM 41.8911 -103.6817 294° West 415 478 42,100  Level Denver Center
12:18AM 41.3782 -105.9592 303° West  Level FlightAware Approximate
12:26AM 40.7919 -108.3112 318° Northwest  Level FlightAware Approximate
12:34AM 40.1587 -110.6205 338° Northwest  Level FlightAware Approximate
12:42AM 39.4806 -112.8856 358° North  Level FlightAware Approximate
12:50AM 39.1927 -115.2683 16° North  Level FlightAware Approximate
12:58AM 38.5879 -117.5034 28° Northeast  Level FlightAware Approximate
01:06AM 37.1262 -118.9741 29° Northeast  Level FlightAware Approximate
01:14AM 36.3265 -119.7501 30° Northeast  Level FlightAware Approximate
01:22AM 36.0152 -120.1859 30° Northeast  Level FlightAware Approximate
01:30AM 37.5572 -118.8728 30° Northeast  Level FlightAware Approximate
01:38AM 38.4451 -117.0144 25° Northeast  Level FlightAware Approximate
01:39AM 44.4881 -113.1011 27° Northeast 557 641 42,100  Level Salt Lake Center
01:40AM 44.6197 -113.0069 27° Northeast 555 639 42,100  Level Salt Lake Center
01:41AM 44.7517 -112.9117 27° Northeast 554 638 42,100  Level Salt Lake Center
01:42AM 44.9061 -112.8006 319° Northwest 553 636 42,100 -2 Level Salt Lake Center
02:27AM 47.4886 -116.1767 279° West 435 501 42,000 -2 Descending Seattle Center
02:28AM 47.5103 -116.3911 281° West 443 510 42,000 50 Level Seattle Center
02:29AM 47.5333 -116.5681 281° West 439 505 42,100  Climbing Seattle Center
02:30AM 47.5575 -116.7461 281° West 442 509 42,000  Descending Seattle Center
02:37AM 47.7167 -118.0011 280° West 453 521 42,100 12 Climbing Seattle Center
02:38AM 47.7386 -118.1833 280° West 450 518 42,100 -50 Level Seattle Center
02:39AM 47.7603 -118.3675 280° West 453 521 42,000 -248 Descending Seattle Center
02:40AM 47.7858 -118.5881 280° West 453 521 41,600 -1,091 Descending Seattle Center
02:41AM 47.8069 -118.7728 279° West 454 522 39,800 -1,934 Descending Seattle Center
02:42AM 47.8269 -118.9547 280° West 450 518 37,700 -1,934 Descending Seattle Center
02:43AM 47.8469 -119.1286 279° West 434 499 35,900 -1,736 Descending Seattle Center
02:44AM 47.8647 -119.2925 279° West 410 472 34,200 -1,686 Descending Seattle Center
02:45AM 47.8822 -119.4539 279° West 399 459 32,500 -1,636 Descending Seattle Center
02:46AM 47.8992 -119.6089 279° West 385 443 30,900 -1,650 Descending Seattle Center
02:47AM 47.9150 -119.7614 279° West 377 434 29,200 -1,636 Descending Seattle Center
02:48AM 47.9308 -119.9131 278° West 373 429 27,600 -1,587 Descending Seattle Center
02:49AM 47.9453 -120.0600 279° West 363 418 26,000 -1,537 Descending Seattle Center
02:50AM 47.9597 -120.2008 278° West 351 404 24,500 -1,438 Descending Seattle Center
02:51AM 47.9733 -120.3397 279° West 342 394 23,100 -1,450 Descending Seattle Center
02:52AM 47.9872 -120.4758 279° West 336 387 21,600 -1,438 Descending Seattle Center
02:53AM 48.0014 -120.6069 278° West 325 374 20,200 -1,388 Descending Seattle Center
02:54AM 48.0144 -120.7389 278° West 322 371 18,800 -1,400 Descending Seattle Center
02:55AM 48.0275 -120.8772 278° West 313 360 17,400 -1,388 Descending Seattle Center
02:56AM 48.0392 -121.0025 278° West 309 356 16,000 -1,339 Descending Seattle Center
02:57AM 48.0503 -121.1258 278° West 308 354 14,700 -1,300 Descending Seattle Center
02:58AM 48.0622 -121.2511 278° West 306 352 13,400 -843 Descending Seattle Center
02:59AM 48.0725 -121.3686 278° West 294 338 13,000 -1,041 Descending Seattle Center
03:00AM 48.0828 -121.4842 278° West 285 328 11,300 -1,550 Descending Seattle Center
03:01AM 48.0928 -121.5911 277° West 275 316 9,900 -1,140 Descending Seattle Center
03:02AM 48.1019 -121.7019 277° West 272 313 9,000 -446 Descending Seattle Center
03:03AM 48.1106 -121.8097 278° West 269 310 9,000 -500 Level Seattle Center
03:04AM 48.1200 -121.9103 278° West 254 292 8,000 -793 Descending Seattle Center
03:05AM 48.1281 -122.0022 277° West 232 267 7,400 -1,091 Descending Seattle Center
03:06AM 48.1350 -122.0903 268° West 218 251 5,800 -1,650 Descending Seattle Center
03:07AM 48.1328 -122.1956 268° West 216 249 4,100 -1,700 Descending Seattle Center

Login

Don't have an account? Register now (free) for customized features, flight alerts, and more!